Home   Weather   Fairfield   Past weeks
Flag for USA

Past Weather in Fairfield, Minnesota, USA — Yesterday and Last 2 Weeks

Now
16 °F

Overcast.


Feels Like: 8 °F
Forecast: 21 / 8 °F
Wind: 5 mph from South

Location: Fergus Falls Weather Reporting System

Current Time: Dec 6, 2019 at 9:38:18 am

Latest Report: Dec 6, 2019 at 8:36 am


Visibility: 10 mi

Pressure: 30.36 "Hg

Humidity: 86%

Dew Point: 12 °F

Location of FairfieldLocation

Past Weather in Fairfield — Graph

°F

Fairfield Temperature Yesterday

Maximum temperature yesterday: 30 °F (at 1:15 pm)
Minimum temperature yesterday: 16 °F (at 8:35 pm)
Average temperature yesterday: 24 °F

High & Low Weather Summary for the Past Weeks

 TemperatureHumidityPressure
High45 °F (Nov 24, 1:36 pm)100% (Dec 3, 7:36 am)30.54 "Hg (Dec 3, 7:36 am)
Low-2 °F (Dec 1, 11:55 pm)48% (Nov 22, 1:35 pm)29.36 "Hg (Nov 25, 5:56 am)
Average26 °F83%29.92 "Hg
* Reported Nov 21 8:15 am — Dec 6 8:15 am, Fairfield. Weather by CustomWeather, © 2019

Note: Actual official high and low records may vary slightly from our data, if they occured in-between our weather recording intervals... More about our weather records

Fairfield Weather History for the Previous 24 Hours

Scroll right to see more
 ConditionsComfort  
Time TempWeatherWind HumidityBarometerVisibility
8:15 am
Fri, Dec 6
18 °FOvercast.3 mph86%30.35 "Hg10 mi
7:55 am16 °FOvercast.No wind86%30.36 "Hg10 mi
7:35 am18 °FOvercast.No wind79%30.36 "Hg10 mi
7:16 am18 °FOvercast.No wind86%30.35 "Hg10 mi
6:56 am18 °FOvercast.No wind86%30.35 "Hg10 mi
6:35 am18 °FOvercast.No wind86%30.35 "Hg10 mi
6:16 am18 °FOvercast.No wind86%30.35 "Hg10 mi
5:56 am16 °FOvercast.No wind86%30.34 "Hg10 mi
5:36 am16 °FOvercast.No wind86%30.34 "Hg10 mi
4:56 am16 °FOvercast.5 mph86%30.35 "Hg10 mi
4:36 am16 °FOvercast.5 mph93%30.35 "Hg10 mi
4:16 am18 °FOvercast.6 mph86%30.35 "Hg10 mi
3:55 am18 °FOvercast.7 mph86%30.34 "Hg10 mi
3:35 am19 °FOvercast.5 mph79%30.35 "Hg10 mi
3:15 am19 °FOvercast.5 mph79%30.34 "Hg10 mi
2:36 am19 °FOvercast.3 mph79%30.35 "Hg10 mi
1:56 am19 °FOvercast.8 mph79%30.34 "Hg10 mi
1:35 am19 °FOvercast.8 mph73%30.34 "Hg10 mi
1:16 am18 °FOvercast.9 mph86%30.33 "Hg10 mi
12:56 am19 °FOvercast.12 mph79%30.33 "Hg10 mi
12:35 am19 °FOvercast.13 mph79%30.33 "Hg10 mi
12:16 am19 °FOvercast.13 mph79%30.33 "Hg10 mi
11:56 pm
Thu, Dec 5
19 °FOvercast.16 mph79%30.33 "Hg10 mi
11:36 pm19 °FOvercast.14 mph79%30.32 "Hg10 mi
11:15 pm18 °FOvercast.18 mph79%30.32 "Hg10 mi
10:56 pm18 °FOvercast.23 mph86%30.31 "Hg10 mi
10:36 pm18 °FOvercast.16 mph79%30.30 "Hg10 mi
10:15 pm18 °FOvercast.23 mph86%30.29 "Hg10 mi
9:56 pm18 °FOvercast.22 mph79%30.28 "Hg10 mi
9:36 pm18 °FPassing clouds.22 mph79%30.27 "Hg10 mi
9:16 pm16 °FClear.25 mph86%30.26 "Hg10 mi
8:56 pm16 °FClear.18 mph86%30.25 "Hg10 mi
8:35 pm16 °FPassing clouds.20 mph86%30.24 "Hg10 mi
8:15 pm18 °FPassing clouds.23 mph86%30.23 "Hg10 mi
7:55 pm19 °FOvercast.20 mph86%30.21 "Hg10 mi
7:35 pm19 °FOvercast.23 mph86%30.20 "Hg10 mi
7:16 pm21 °FOvercast.23 mph86%30.19 "Hg10 mi
6:56 pm21 °FOvercast.23 mph86%30.17 "Hg10 mi
6:35 pm23 °FLow clouds.24 mph86%30.16 "Hg10 mi
6:15 pm23 °FLow clouds.20 mph93%30.14 "Hg10 mi
5:55 pm23 °FLow clouds.24 mph86%30.12 "Hg10 mi
5:36 pm25 °FLow clouds.15 mph93%30.10 "Hg10 mi
5:16 pm27 °FMostly cloudy.23 mph93%30.08 "Hg10 mi
4:35 pm28 °FOvercast.21 mph93%30.04 "Hg10 mi
3:55 pm30 °FOvercast.14 mph86%30.01 "Hg10 mi
3:36 pm30 °FOvercast.17 mph86%30.00 "Hg10 mi
3:15 pm30 °FPartly sunny.17 mph86%29.98 "Hg10 mi
2:55 pm30 °FSunny.20 mph86%29.96 "Hg10 mi
2:35 pm30 °FSunny.17 mph86%29.95 "Hg10 mi
2:15 pm30 °FSunny.14 mph80%29.93 "Hg10 mi
1:55 pm30 °FScattered clouds.18 mph86%29.92 "Hg10 mi
1:35 pm30 °FPartly sunny.9 mph86%29.90 "Hg10 mi
1:15 pm30 °FScattered clouds.16 mph80%29.90 "Hg10 mi
12:55 pm28 °FPartly sunny.15 mph86%29.89 "Hg10 mi
12:36 pm27 °FLow clouds.10 mph86%29.88 "Hg10 mi
11:56 am27 °FScattered clouds.10 mph86%29.87 "Hg10 mi
11:36 am27 °FSunny.10 mph86%29.86 "Hg10 mi
11:16 am27 °FSunny.5 mph86%29.85 "Hg10 mi
10:55 am27 °FSunny.3 mph86%29.85 "Hg10 mi
10:36 am27 °FSunny.3 mph86%29.84 "Hg10 mi
10:15 am27 °FSunny.5 mph86%29.83 "Hg10 mi
9:56 am25 °FSunny.5 mph86%29.83 "Hg10 mi
9:35 am25 °FSunny.6 mph86%29.82 "Hg10 mi
9:15 am25 °FSunny.6 mph86%29.81 "Hg10 mi
Weather by CustomWeather, © 2019

See weather overview

Advertising